Regional Weather Roundup
Issued by NWS

Home | Current Version | Previous Version | Text Only | Print | Product List | Glossary On
Versions: 1 2 3 4 5 6 7 8 9 10 11 12 13 14 15 16 17 18 19 20 21 22 23 24 25 26 27 28 29 30 31 32 33 34 35 36 37 38 39 40 41 42 43 44 45 46 47 48 49 50
000
ASUS44 KLUB 240801
RWRTX
WEST TEXAS WEATHER ROUNDUP
NATIONAL WEATHER SERVICE LUBBOCK TX
300 AM CDT SUN JUL 24 2016

NOTE: "FAIR" INDICATES FEW OR NO CLOUDS BELOW 12,000 FEET WITH NO
SIGNIFICANT WEATHER AND/OR OBSTRUCTIONS TO VISIBILITY.

TXZ004-006>008-010-012-014-016-OKZ002-240900-
TEXAS PANHANDLE/OKLAHOMA PANHANDLE

CITY           SKY/WX    TMP DP  RH WIND       PRES   REMARKS
AMARILLO       CLEAR     77  56  48 S13       30.03S
BORGER         CLOUDY    81  58  45 S13       29.98S
CANADIAN       CLEAR     81  63  55 S14       29.94S
DALHART        CLOUDY    75  54  47 SW8       30.05S
DUMAS          MOCLDY    78  53  40 S8        30.02S
GUYMON         CLOUDY    85  53  33 W15       29.99S
HEREFORD       CLEAR     74  56  53 S7        30.05S
PAMPA          CLEAR     80  60  50 S13       30.01S
PERRYTON       CLOUDY    79  61  53 S6        29.98S
$$

TXZ026-029-035-045-048-240900-
SOUTHERN PANHANDLE/SOUTH PLAINS/ROLLING PLAINS

CITY           SKY/WX    TMP DP  RH WIND       PRES   REMARKS
CHILDRESS      CLEAR     81  60  48 S9        29.94S
SEMINOLE       CLEAR     75  55  51 CALM      30.02S
LUBBOCK        CLEAR     79  59  50 SE10      30.01S
PLAINVIEW      CLEAR     69  58  68 S6        30.01S
SNYDER           N/A     82  58  45 SE10      29.98S
$$

TXZ052-054-060>062-072-078-127-140-154-169-240900-
PERMIAN BASIN/CONCHO VALLEY/BIG COUNTRY/EDWARDS PLATEAU

CITY           SKY/WX    TMP DP  RH WIND       PRES   REMARKS
ABILENE        CLEAR     81  64  56 SE12      29.96F
BIG SPRING     CLEAR     83  57  41 SE13      30.00S
JUNCTION       CLEAR     82  68  62 SW7       29.97S
MIDLAND        CLEAR     84  56  38 S13       29.98F
ODESSA         CLEAR     83  55  38 S9        30.00S
SAN ANGELO     CLEAR     84  62  47 S9        29.95S
SONORA         CLEAR     82  66  57 SE10G17   30.02F
SWEETWATER     CLEAR     82  58  42 SE13G20   29.99F
WINK           CLEAR     82  56  40 SE10      29.96R
$$

TXZ055-058-074-075-080-082-240900-
FAR WEST/SOUTHWEST MOUNTAINS/TRANS PECOS

CITY           SKY/WX    TMP DP  RH WIND       PRES   REMARKS
ALPINE         PTCLDY    79  55  43 S10       30.12S
DRYDEN           N/A     85  59  41 E10       29.92F
EL PASO        CLEAR     85  45  24 SE8       29.96S
FORT STOCKTON  CLEAR     82  57  42 SE14G23   29.96F
GUADALUPE PASS CLEAR     75  53  46 NE25      30.14R
PECOS          CLEAR     83  56  39 E9        29.94R
PRESIDIO       FAIR      88  56  33 NE8       29.93S
$$

TXZ014-016-019-021>030-083-240900
TEXAS TECH WEST TEXAS MESONET/TEXAS PANHANDLE/NORTHERN SOUTH PLAINS

CITY           SKY/WX    TMP DP  RH WIND       PRES   REMARKS
ABERNATHY 5ENE   N/A     69  58  69 S7        30.04S
AMARILLO 9NNE    N/A     75  56  51 S9        30.02S
AMARILLO 7SSE    N/A     75  57  53 S9        30.06R
BOOTLEG 11WNW    N/A     70  54  56 S12       30.11F
CANADIAN 6E      N/A     77  63  61 SE8       29.95S
CAPROCK CYN SP   N/A     77  60  55 S9        30.00R
CHILDRESS 2NNE   N/A     81  60  48 S12       29.95R
CLARENDON 2WSW   N/A     78  59  50 SE10      30.01S
CLAUDE 12SW      N/A     81  58  45 S12       30.04S
DIMMITT 2NE      N/A     70  54  56 S8        30.07S
FLOYDADA 2NNE    N/A     74  58  56 SE8       30.02S
FRIONA 2NE       N/A     71  55  56 S8        30.08R
GOODLETT 3W      N/A     81  60  49 SE8       29.93S
HART 3N          N/A     70  58  66 S6        30.06S
HEREFORD 2NW     N/A     73  52  48 S8        30.08S
MCLEAN 1E        N/A     76  60  56 S7        30.00S
MEMPHIS 1NE      N/A     78  63  59 CALM      29.97R
MULESHOE 2SSW    N/A     77  55  45 S12       30.06S
OLTON 6S         N/A     73  57  57 S8        30.05S
PALO DURO SP     N/A     80  57  46 S9        30.05S
PAMPA 2E         N/A     74  60  61 S10       30.02F
PLAINVIEW 1S     N/A     75  59  58 SE7       30.04S
SILVERTON 7ESE   N/A     78  59  51 S10       30.01S
TULIA 2ENE       N/A     72  59  63 S8        30.05S
TURKEY 2WSW      N/A     79  61  54 S7        29.98R
UMBARGER 3NNE    N/A     77  56  48 S13       30.06R
$$

TXZ033>036-039>041-045>048-240900
TEXAS TECH WEST TEXAS MESONET/SOUTH PLAINS

CITY           SKY/WX    TMP DP  RH WIND       PRES   REMARKS
AIKEN 3WSW       N/A     70  61  72 SE6       30.04S
ANDREWS 2NE      N/A     79  53  40 S8        30.03S
ANTON 6SSW       N/A     70  58  65 SE7       30.03S
BROWNFIELD 2S    N/A     72  57  59 SE9       30.03S
DENVR CTY 7WNW   N/A     73  53  48 S8        30.05S
GAIL 2ESE        N/A     79  58  49 SE7       29.98S
LAMESA 2SE       N/A     77  59  54 SE8       30.01S
LEVELLAND 4S     N/A     73  56  55 SE8       30.05S
LUBBOCK 3WNW     N/A     82  56  41 SE12G17   30.03S
MORTON 1ENE      N/A     76  55  48 S8        30.05S
ODONNELL 1N      N/A     79  55  44 SE6       30.02S
PLAINS 3N        N/A     75  54  47 S8        30.06S
RALLS 1SE        N/A     74  58  55 SE6       30.03S
REESE CENTER     N/A     78  57  49 SE10      30.04S
SEAGRAVES 1SW    N/A     75  57  52 S6        30.03S
SEMINOLE 2NNE    N/A     76  55  46 S6        30.02S
SLATON 2NE       N/A     80  57  45 S10       30.02S
SNYDER 3E        N/A     82  57  42 SE14      29.97S
SUNDOWN 8SW      N/A     68  55  61 E10       30.05R
TAHOKA 3NNE      N/A     76  58  52 SE8       30.02S
WOLFFORTH 6SSW   N/A     74  57  55 SE6       30.04S
$$

TXZ031-032-036>038-042>044-240900-
TEXAS TECH WEST TEXAS MESONET/ROLLING PLAINS

CITY           SKY/WX    TMP DP  RH WIND       PRES   REMARKS
ASPERMONT 3NE    N/A     83  60  45 SE9       29.95S
FLUVANNA 3WNW    N/A     80  55  41 SE9       30.00R
GRAHAM 5SSW      N/A     81  57  44 SE8       30.01S
GUTHRIE 10WSW    N/A     83  59  43 SE13      29.94F
HASKELL 1NW      N/A     83  59  45 SE7       29.94F
JAYTON 1SSE      N/A     83  57  42 SE10      29.95S
KNOX CITY 3NW    N/A     84  59  43 SE14      29.93S
LK A HENRY 1NW   N/A     85  55  36 S12       29.97R
NORTHFIELD 1S    N/A     81  61  50 S16       29.95S
PADUCAH 10SW     N/A     77  61  57 S9        29.96S
POST 1NE         N/A     83  55  38 S7        29.98S
RRING SPRGS 3N   N/A     76  60  57 S9        30.00R
SEYMOUR 3NW      N/A     82  62  50 S9        29.93S
SPUR 1W          N/A     79  57  48 E1        29.97R
WHITE RVR 6NE    N/A     80  57  46 E3        30.00S
$$

TXZ052-054-060>062-072-078-127-140-154-169-240900-
TEXAS TECH WEST TEXAS MESONET/PERMIAN BASIN/
CONCHO VALLEY/BIG COUNTRY/EDWARDS PLATEAU

CITY           SKY/WX    TMP DP  RH WIND       PRES   REMARKS
COYANOSA 2N      N/A     79  56  46 E7        29.96S
JUNCTION 1SSW    N/A     82  69  65 S10       29.98S
SAN ANGELO 7NW   N/A     81  59  46 SE7       29.97S
STRLNG CT 4WSW   N/A     79  57  46 SE6       29.99F
ST LAWRNCE 5SW   N/A     74  54  50 SE7       30.00S
SWEETWATR 11SW   N/A     80  60  49 SE12      30.01S
WALL 1E          N/A     83  60  46 SE12      29.97S
$$

TXZ055-058-074-075-080-082-240900-
TEXAS TECH WEST TEXAS MESONET/FAR WEST/SOUTHWEST MOUNTAINS/TRANS PECOS

CITY           SKY/WX    TMP DP  RH WIND       PRES   REMARKS
PRSMN GAP BBNP   N/A     85  57  38 NE7       29.96F
GUADLPE MTN NP   N/A     73  51  46 N8        30.18F
$$




USA.gov is the U.S. government's official web portal to all federal, state and local government web resources and services.